Weather History for Harvey, ND

Change the Weather History Date:

Sunday, September 22, 2013

  Actual Average (KRUG) Record (KRUG)
Temperature  
Mean Temperature 63 °F -  
Max Temperature 80 °F 65 °F 82 °F (1967)
Min Temperature 46 °F 40 °F 19 °F (2012)
Degree Days  
Heating Degree Days 2    
Growing Degree Days 13 (Base 50)    
Moisture  
Dew Point 51 °F    
Average Humidity 70    
Maximum Humidity 100    
Minimum Humidity 45    
Precipitation  
Precipitation 0.00 in - - ()
Sea Level Pressure  
Sea Level Pressure 29.58 in    
Wind  
Wind Speed 13 mph (SE)    
Max Wind Speed 18 mph    
Max Gust Speed 25 mph    
Visibility 10 miles    
Events      
Averages and records for this station are not official NWS values.
T = Trace of Precipitation, MM = Missing Value Source: NWS Daily Summary

Daily Weather History Graph

Daily Weather History Graph

Search for Another Location

Airport:

Trip Planner

Search our weather history database for the weather conditions in past years. The results will help you decide how hot, cold, wet, or windy it might be!

Date:

Astronomy

Sep. 22, 2013 Rise Set
Actual Time 7:26 AM CDT 7:36 PM CDT
Civil Twilight 6:55 AM CDT 8:07 PM CDT
Nautical Twilight 6:19 AM CDT 8:43 PM CDT
Astronomical Twilight 5:42 AM CDT 9:21 PM CDT
Moon 9:09 PM CDT (9/22) 11:06 AM CDT (9/22)
Length of Visible Light 13h 11m
Length of Day
12h 10m
Waning Gibbous, 88% of the Moon is Illuminated
Sep 22
Waning Gibbous
Sep 26
Last Quarter
Oct 4
New
Oct 11
First Quarter
Oct 18
Full

Hourly Weather History & Observations

Time (CDT) Temp. Windchill Dew Point Humidity Pressure Visibility Wind Dir Wind Speed Gust Speed Precip Events Conditions
12:15 AM 50.0 °F - 44.6 °F 82% 29.76 in 10.0 mi SE 15.0 mph 23.0 mph N/A   Clear
12:35 AM 48.2 °F - 44.6 °F 87% 29.76 in 10.0 mi SE 12.7 mph 19.6 mph N/A   Clear
12:55 AM 48.2 °F - 44.6 °F 87% 29.76 in 10.0 mi ESE 12.7 mph 17.3 mph N/A   Clear
1:15 AM 48.2 °F - 44.6 °F 87% 29.75 in 10.0 mi ESE 11.5 mph - N/A   Clear
1:35 AM 48.2 °F - 44.6 °F 87% 29.74 in 10.0 mi SE 12.7 mph 18.4 mph N/A   Clear
1:55 AM 48.2 °F - 44.6 °F 87% 29.73 in 10.0 mi SE 12.7 mph 16.1 mph N/A   Clear
2:15 AM 48.2 °F - 44.6 °F 87% 29.73 in 10.0 mi ESE 11.5 mph 17.3 mph N/A   Clear
2:35 AM 48.2 °F - 44.6 °F 87% 29.71 in 10.0 mi ESE 12.7 mph - N/A   Clear
2:55 AM 46.4 °F 40.7 °F 44.6 °F 93% 29.71 in 10.0 mi ESE 12.7 mph - N/A   Clear
3:15 AM 48.2 °F - 44.6 °F 87% 29.69 in 10.0 mi ESE 13.8 mph 19.6 mph N/A   Clear
3:35 AM 48.2 °F - 44.6 °F 87% 29.69 in 10.0 mi ESE 13.8 mph 19.6 mph N/A   Clear
3:55 AM 48.2 °F - 44.6 °F 87% 29.69 in 10.0 mi SE 12.7 mph - N/A   Clear
4:15 AM 48.2 °F - 44.6 °F 87% 29.68 in 10.0 mi ESE 12.7 mph 19.6 mph N/A   Clear
4:35 AM 46.4 °F 41.5 °F 44.6 °F 93% 29.67 in 10.0 mi ESE 10.4 mph 16.1 mph N/A   Clear
4:55 AM 48.2 °F - 44.6 °F 87% 29.67 in 10.0 mi SE 9.2 mph 16.1 mph N/A   Clear
5:15 AM 46.4 °F 41.1 °F 44.6 °F 93% 29.67 in 10.0 mi ESE 11.5 mph - N/A   Clear
5:35 AM 46.4 °F 40.7 °F 44.6 °F 93% 29.67 in 10.0 mi ESE 12.7 mph 16.1 mph N/A   Clear
5:55 AM 46.4 °F 40.7 °F 46.4 °F 100% 29.66 in 10.0 mi ESE 12.7 mph - N/A   Clear
6:15 AM 46.4 °F 40.7 °F 46.4 °F 100% 29.66 in 10.0 mi ESE 12.7 mph - N/A   Clear
6:35 AM 46.4 °F 41.1 °F 46.4 °F 100% 29.65 in 10.0 mi ESE 11.5 mph - N/A   Clear
6:55 AM 46.4 °F 41.1 °F 46.4 °F 100% 29.65 in 10.0 mi ESE 11.5 mph - N/A   Clear
7:15 AM 46.4 °F 41.5 °F 46.4 °F 100% 29.65 in 10.0 mi ESE 10.4 mph - N/A   Clear
7:35 AM 46.4 °F 42.4 °F 46.4 °F 100% 29.65 in 10.0 mi ESE 8.1 mph - N/A   Clear
7:55 AM 46.4 °F 40.7 °F 46.4 °F 100% 29.64 in 10.0 mi ESE 12.7 mph - N/A   Clear
8:15 AM 46.4 °F 41.1 °F 46.4 °F 100% 29.64 in 10.0 mi ESE 11.5 mph 18.4 mph N/A   Clear
8:35 AM 48.2 °F - 46.4 °F 93% 29.63 in 10.0 mi SE 15.0 mph - N/A   Clear
8:55 AM 50.0 °F - 46.4 °F 87% 29.62 in 10.0 mi SE 11.5 mph 19.6 mph N/A   Clear
9:15 AM 51.8 °F - 46.4 °F 82% 29.61 in 10.0 mi SE 13.8 mph 19.6 mph N/A   Clear
9:35 AM 53.6 °F - 48.2 °F 82% 29.61 in 10.0 mi SE 17.3 mph 21.9 mph N/A   Clear
9:55 AM 55.4 °F - 48.2 °F 77% 29.61 in 10.0 mi SE 12.7 mph 21.9 mph N/A   Clear
10:15 AM 55.4 °F - 48.2 °F 77% 29.61 in 10.0 mi SE 13.8 mph 18.4 mph N/A   Clear
10:35 AM 57.2 °F - 48.2 °F 72% 29.60 in 10.0 mi SE 11.5 mph 17.3 mph N/A   Clear
10:55 AM 59.0 °F - 50.0 °F 72% 29.60 in 10.0 mi ESE 13.8 mph 17.3 mph N/A   Clear
11:15 AM 62.6 °F - 50.0 °F 63% 29.59 in 10.0 mi SE 13.8 mph 20.7 mph N/A   Clear
11:35 AM 64.4 °F - 50.0 °F 59% 29.58 in 10.0 mi SE 12.7 mph 20.7 mph N/A   Clear
11:55 AM 66.2 °F - 50.0 °F 56% 29.58 in 10.0 mi SE 11.5 mph 17.3 mph N/A   Clear
12:15 PM 66.2 °F - 51.8 °F 60% 29.57 in 10.0 mi SSE 15.0 mph - N/A   Clear
12:35 PM 68.0 °F - 51.8 °F 56% 29.57 in 10.0 mi SE 13.8 mph - N/A   Clear
12:55 PM 69.8 °F - 53.6 °F 56% 29.56 in 10.0 mi SSE 13.8 mph 18.4 mph N/A   Clear
1:15 PM 71.6 °F - 53.6 °F 53% 29.55 in 10.0 mi SE 13.8 mph 18.4 mph N/A   Clear
1:35 PM 71.6 °F - 53.6 °F 53% 29.55 in 10.0 mi SE 12.7 mph 18.4 mph N/A   Clear
1:55 PM 71.6 °F - 53.6 °F 53% 29.55 in 10.0 mi SE 12.7 mph 18.4 mph N/A   Clear
2:15 PM 73.4 °F - 53.6 °F 50% 29.54 in 10.0 mi SSE 13.8 mph 23.0 mph N/A   Clear
2:35 PM 75.2 °F - 55.4 °F 50% 29.53 in 10.0 mi SSE 18.4 mph 24.2 mph N/A   Clear
2:55 PM 75.2 °F - 55.4 °F 50% 29.52 in 10.0 mi SE 15.0 mph 24.2 mph N/A   Clear
3:15 PM 77.0 °F - 55.4 °F 47% 29.50 in 10.0 mi SE 15.0 mph 25.3 mph N/A   Clear
3:35 PM 77.0 °F - 55.4 °F 47% 29.51 in 10.0 mi SSE 11.5 mph 25.3 mph N/A   Clear
3:55 PM 77.0 °F - 55.4 °F 47% 29.50 in 10.0 mi SSE 15.0 mph 25.3 mph N/A   Clear
4:15 PM 78.8 °F - 57.2 °F 47% 29.49 in 10.0 mi SSE 17.3 mph 23.0 mph N/A   Clear
4:35 PM 78.8 °F - 57.2 °F 47% 29.48 in 10.0 mi SSE 18.4 mph 25.3 mph N/A   Clear
4:55 PM 78.8 °F - 57.2 °F 47% 29.48 in 10.0 mi SSE 11.5 mph 20.7 mph N/A   Clear
5:15 PM 80.6 °F - 57.2 °F 45% 29.48 in 10.0 mi SSE 12.7 mph 21.9 mph N/A   Clear
5:35 PM 80.6 °F - 57.2 °F 45% 29.47 in 10.0 mi SSE 13.8 mph - N/A   Clear
5:55 PM 80.6 °F - 59.0 °F 48% 29.47 in 10.0 mi SSE 10.4 mph - N/A   Clear
6:15 PM 80.6 °F - 57.2 °F 45% 29.47 in 10.0 mi SSE 10.4 mph 18.4 mph N/A   Clear
6:35 PM 78.8 °F - 59.0 °F 51% 29.47 in 10.0 mi SE 8.1 mph - N/A   Clear
6:55 PM 77.0 °F - 59.0 °F 54% 29.46 in 10.0 mi SE 10.4 mph - N/A   Clear
7:15 PM 77.0 °F - 59.0 °F 54% 29.46 in 10.0 mi ESE 6.9 mph - N/A   Clear
7:35 PM 73.4 °F - 59.0 °F 61% 29.46 in 10.0 mi ESE 8.1 mph - N/A   Clear
7:55 PM 73.4 °F - 59.0 °F 61% 29.46 in 10.0 mi SE 8.1 mph - N/A   Clear
8:15 PM 73.4 °F - 59.0 °F 61% 29.46 in 10.0 mi SE 5.8 mph - N/A   Clear
8:35 PM 73.4 °F - 59.0 °F 61% 29.46 in 10.0 mi SE 6.9 mph - N/A   Clear
8:55 PM 73.4 °F - 57.2 °F 57% 29.46 in 10.0 mi SE 10.4 mph - N/A   Clear
9:15 PM 73.4 °F - 57.2 °F 57% 29.46 in 10.0 mi SSE 11.5 mph 17.3 mph N/A   Clear
9:35 PM 73.4 °F - 57.2 °F 57% 29.46 in 10.0 mi SSE 10.4 mph - N/A   Clear
9:55 PM 71.6 °F - 57.2 °F 60% 29.46 in 10.0 mi SSE 10.4 mph - N/A   Clear
10:15 PM 71.6 °F - 57.2 °F 60% 29.47 in 10.0 mi SSE 10.4 mph - N/A   Clear
10:35 PM 71.6 °F - 57.2 °F 60% 29.47 in 10.0 mi SE 10.4 mph - N/A   Clear
10:55 PM 71.6 °F - 55.4 °F 57% 29.48 in 10.0 mi South 11.5 mph 18.4 mph N/A   Partly Cloudy
11:15 PM 73.4 °F - 55.4 °F 53% 29.48 in 10.0 mi South 15.0 mph 24.2 mph N/A   Partly Cloudy
11:35 PM 73.4 °F - 55.4 °F 53% 29.47 in 10.0 mi South 13.8 mph 23.0 mph N/A   Clear
11:55 PM 73.4 °F - 55.4 °F 53% 29.47 in 10.0 mi SSE 11.5 mph - N/A   Clear